{"data":{"norad_id":69020,"intl_designator":"2026-100AS","name":"SELENE","alt_names":[],"object_type":"PAYLOAD","status":"ACTIVE","operator":null,"country":"GREC","launch_date":"2026-05-03","launch_site_code":"AFWTR","launch_vehicle":null,"mission":null,"orbit_class":"UNKNOWN","rcs_meters":null,"size_class":null,"mass_kg":null,"dimensions":null,"purposes":[],"wikipedia_slug":null,"has_3d_model":false,"image_url":null,"decayed_at":null,"tle_current":{"epoch":"2026-09-20T03:37:26.889888Z","epoch_age_seconds":49509,"freshness":"FRESH","line1":"1 69020U 26100AS  26263.15100567  .00003289  00000+0  15254-3 0  9991","line2":"2 69020  97.3903 159.1328 0004809  32.7672 327.3861 15.20740891 21232","mean_motion":15.20740891,"eccentricity":0.0004809,"inclination_deg":97.3903,"raan_deg":159.1328,"arg_perigee_deg":32.7672,"mean_anomaly_deg":327.3861,"bstar":0.00015254,"rev_number":2123,"period_min":94.690687185579,"perigee_km":500.29512884385,"apogee_km":506.91398787468,"semimajor_km":6881.7415583593,"source":"CELESTRAK","updated_at":"2026-09-20T09:00:24.632228Z"}}}